Location: Bastogne Gables
(35.1554°N, 78.9900°W)
Time: 14:55:21
(UTC+00:00)

Daily predictions for brighter satellites

Satellite Brightness Start Highest point End
(mag) Time Altitude Azimuth Time Altitude Azimuth Time Altitude Azimuth
H-2A R/B 4.2 22:46:56 10° S 22:51:08 43° W 22:55:25 10° NNW
SKYMED 2 4.2 22:47:24 10° NNE 22:51:24 36° E 22:55:23 10° SSE
Radarsat Rocket 4.4 22:47:57 10° S 22:54:05 69° WSW 22:59:54 10° NNW
Meteor 2-10 Rocket 4.2 22:50:56 10° SSE 22:55:41 33° E 23:00:16 10° NNE
Okean-O 4.0 22:52:55 10° ESE 22:55:51 18° ENE 22:58:46 10° NNE
Timation 2 Rocket 4.2 22:51:03 10° NNW 22:57:45 72° ENE 23:04:35 10° SSE
SMAP 3.4 22:55:11 10° S 22:59:49 74° WSW 23:04:28 10° NNW
Cosmos 1553 Rocket 4.2 22:54:08 10° SSE 23:00:16 54° E 23:06:22 10° NNE
FengYun 1-2 T 4.3 22:56:17 10° SSE 23:01:53 68° ENE 23:07:29 10° N
H-2A R/B 3.7 23:00:46 10° E 23:03:36 14° ENE 23:06:26 10° NNE
Cosmos 1689 Rocket 2.4 23:01:46 10° NNE 23:04:29 38° E 23:07:12 10° S
Cosmos 1408 4.1 23:02:01 10° NNE 23:04:30 17° ENE 23:06:58 10° ESE
AQUARIUS 4.5 23:01:05 10° S 23:05:33 73° WSW 23:10:04 10° NNW
Cosmos 44 Rocket 3.6 23:06:38 10° S 23:11:05 45° ESE 23:15:42 10° NE
Cosmos 1953 Rocket 3.8 23:06:50 10° N 23:11:16 76° W 23:15:42 10° S
Cosmos 2058 Rocket 3.3 23:07:56 10° S 23:12:23 75° W 23:16:55 10° N
Cosmos 2278 4.4 23:07:31 10° SSE 23:12:29 32° ESE 23:17:26 10° NE
Cosmos 2219 3.2 23:14:28 10° NNW 23:20:14 72° ENE 23:25:57 10° SSE
Cosmos 1939 Rocket 2.8 23:17:41 10° SSE 23:21:34 57° ENE 23:25:25 10° N
Cosmos 1892 2.8 23:19:32 10° N 23:23:20 50° E 23:27:05 10° SSE
SL-08 R/B 4.4 23:20:06 10° N 23:26:13 67° E 23:32:16 10° SSE
Cosmos 1076 Rocket 4.4 23:22:51 10° NNE 23:26:28 27° ENE 23:30:05 10° SE
Cosmos 968 Rocket 3.6 23:21:58 10° N 23:27:03 53° ENE 23:32:03 10° SSE
Cosmos 2082 4.4 23:22:03 10° N 23:27:13 33° ENE 23:31:56 12° ESE
Aureole 3 Rocket 3.9 23:24:30 10° SSW 23:28:10 53° WNW 23:33:11 10° N
CZ-4B R/B 3.8 23:26:19 10° NNW 23:28:51 23° WNW 23:31:20 10° SW
OAO 3 Rocket 4.5 23:25:34 10° W 23:29:58 36° SSW 23:34:18 10° SE
NOSS 3-3 (A) 4.1 23:24:38 10° SW 23:30:17 73° WNW 23:36:35 10° NNE
NOSS 3-3 (C) 4.0 23:24:45 10° SW 23:30:24 74° WNW 23:36:42 10° NNE
Cosmos 1745 Rocket 4.1 23:26:56 10° N 23:33:06 54° E 23:39:17 10° SSE
Feng Yun 1-1 Rocket 4.5 23:28:25 10° SSE 23:34:19 84° WSW 23:40:16 10° NNW
USA 307 4.4 23:31:11 10° NNW 23:34:25 20° NNE 23:35:04 20° NE
IRS-1C Rocket 4.0 23:31:07 10° SSE 23:36:22 82° ENE 23:41:39 10° NNW
Cosmos 2369 3.7 23:31:09 10° SSW 23:36:52 86° ESE 23:42:37 10° NNE
Cosmos 1825 3.4 23:34:56 10° NNE 23:37:06 24° NE 23:37:06 24° NE
USA 308 4.3 23:36:05 10° NNW 23:39:26 22° NNE 23:39:51 21° NE
COSMO-SKYMED 1 3.2 23:35:12 10° N 23:39:28 58° WNW 23:43:43 10° SSW
GPS 2-04 Rocket1 2.7 23:35:27 10° WSW 23:39:28 76° SSE 23:41:13 33° E
Helios 1A Rocket 2.9 23:36:08 10° SSE 23:40:12 61° ENE 23:44:15 10° N
CSL-04 Rocket 4.3 23:39:13 13° SE 23:43:31 34° ENE 23:48:24 10° N
CZ-4 R/B 4.3 23:40:14 10° SSE 23:44:23 83° ENE 23:48:33 10° N
CZ-2D R/B 3.1 23:40:48 10° SSE 23:44:36 80° ENE 23:48:24 10° N
OAO 2 Rocket 3.2 23:39:40 10° W 23:44:43 90° SE 23:46:58 33° E
YAOGAN 1 2.7 23:42:04 10° SSE 23:46:13 48° ENE 23:50:23 10° N
ATLAS 2AS CENTAUR R/B 4.2 23:42:50 10° N 23:47:40 18° NE 23:48:37 18° NE
Cosmos 1340 4.0 23:45:34 10° NNW 23:49:08 41° W 23:52:41 10° SSW
CZ-4 R/B 1.1 23:46:26 10° SSE 23:50:17 65° ENE 23:54:07 10° N
Cosmos 2227 Rocket 2.2 23:45:10 10° NNW 23:50:51 83° WSW 23:56:29 10° SSE
OAO 1 Rocket 4.4 23:46:23 10° W 23:51:46 90° S 23:53:59 36° E
Cosmos 2263 Rocket 4.1 23:49:07 10° NNE 23:50:17 13° NNE 23:50:17 13° NNE
Cosmos 1812 Rocket 3.4 23:48:16 10° S 23:52:39 81° E 23:57:02 10° N
